STARLINK-5268, 54192

Orbit data source: Space-Track

STARLINK-5268, 54192 is a payload satellite owned by SpaceX/Seattle (US) in LEO that was launched on Fri, 28 Oct 2022 UTC via an FALCON 9 launch vehicle from the Air Force Western Test Range (AFWTR). Payload-class satellites include a variety of spacecraft equipped with specific instruments for various scientific and technological missions. These include communications satellites like Starlink; space stations such as the ISS; scientific satellites like the Hubble; Earth observation satellites from companies like Planet Labs, Umbra, and HawkEye 360; GPS; miniature CubeSats for education and research; and military/defense satellites.

Loading next visibility...
Identifier
54192, 2022-141AM
Orbit
LEO
Last TLE update
15 hours ago
Origin
Manufacturer
SpaceX/Seattle
Mission
Operational Commercial Communications
Bus & Motor
STARLINK, Unknown motor
Mass
305 kg wet, ~290 kg dry
Launch date (UTC)
2022-10-28 (3 years ago)
Launch vehicle
FALCON 9
Launch site
Air Force Western Test Range (AFWTR)
Object type
Payload
Rocket body
Debris
Shape & HBR
Box + 1 Pan, 8.86 m
Radar Cross Section
13.562 m², Large (>1 m²)

Expand to show TLE details & history

TLE from 15 hours ago
0 STARLINK-5268
1 54192U 22141AM  25178.87667917 -.00000141  00000-0  92616-5 0  9991
2 54192  53.2178  57.7462 0001494  84.5030 275.6132 15.08838598147764
Epoch: 2025-06-27T21:02Z
TLE epoch observation values (Epoch: 2025-06-27T21:02:25.08Z)
Latitude
-0.00006°
Longitude
-174.08159°
Altitude
540.544 km
Speed
7.593 km/s
True Right ascension
03h 50m 59s
True Declination
0° 00' 00"
Sunlit
Object was in daylight at epoch
Visualization orbit readout
Latitude
1.37874°
Longitude
2.06908°
Altitude
540.509 km
Speed
7.593 km/s
Apparent Right ascension
13h 57m 52s
Apparent Declination
-20° 48' 45"
Sunlit
Object is in full shadow
Visualization observer readout
Local Sidereal Time
23:34:57
Azimuth
291.445° WNW
Elevation
-54.097°
Doppler factor
1
Orbital elements
Apogee altitude
541.026 km
Perigee altitude
538.959 km
Semi-major axis
6,918.13 km
Eccentricity
0.00015
Inclination
53.2178°
RAAN
57.7462°
Arg. of periapsis
84.503°
True anomaly
Unknown
Mean anomaly
275.6132°
Eccentric anomaly
Unknown
Mean motion
3.7719 °/min
Orbital period
95.44 mins
BSTAR
0.0000092616
Loading maneuver chart data...
Loading SW <> Apogee altitude chart data...
Loading historical data...
Loading historical data...
Loading historical data...
Loading historical data...
Loading historical data...
Loading historical data...
Loading historical data...

STARLINK-5268 Visibility forecast

Observer location: undefined°, undefined°

Span
Click to sort rows by Start time (UTC) header in descending order
Start Az.
Max El. time (UTC)
Max El. Az.
Max El.
End time (UTC)
End Az.
6 mins2025-06-28 17:52:03.962Z190.117° SSW2025-06-28 17:55:03.962Z122.278° SE29.046°2025-06-28 17:58:03.962Z68.994° E
5 mins2025-06-28 19:32:03.962Z276.65° WNW2025-06-28 19:34:03.962Z327.922° NNW30.293°2025-06-28 19:37:03.962Z31.298° NE
6 mins2025-06-29 00:33:03.962Z334.301° NNW2025-06-29 00:35:03.962Z18.621° NNE30.473°2025-06-29 00:39:03.962Z99.596° ESE
5 mins2025-06-29 02:13:03.962Z271.5° WNW2025-06-29 02:15:03.962Z216.9° SW28.013°2025-06-29 02:18:03.962Z166.081° S
|